Regional Weather Roundup
Issued by NWS

Home | Current Version | Previous Version | Graphics & Text | Print | Product List | Glossary On
Versions: 1 2 3 4 5 6 7 8 9 10 11 12 13 14 15 16 17 18 19 20 21 22 23 24 25 26 27 28 29 30 31 32 33 34 35 36 37 38 39 40 41 42 43 44 45 46 47 48 49 50
000
ASUS45 KSLC 281610
RWRUT

UTAH REGIONAL WEATHER ROUNDUP
NATIONAL WEATHER SERVICE SALT LAKE CITY UT
900 AM MST SAT FEB 28 2015

UTZ001>011-023>025-281700-

NORTHERN UTAH

CITY           SKY/WX    TMP DP  RH WIND       PRES   REMARKS
BRIGHAM CITY   MOSUNNY   37  20  50 N6        29.71R WCI  32
HILL AFB       PTSUNNY   34  15  45 E21G29    29.69R WCI  22
LOGAN          SUNNY     27  23  85 SW5       29.75R WCI  22
OGDEN          MOSUNNY   35  19  52 VRB3      29.69R
PROVO AIRPORT  NOT AVBL
SALT LAKE CITY CLOUDY    33  26  75 NE5       29.68R WCI  29
VERNAL         CLOUDY    31  19  61 N3        29.79R
WENDOVER       CLOUDY    37  25  60 CALM      29.69R
HEBER CITY     CLOUDY    23  19  86 W5        29.73R THUNDER WCI  17
WEST JORDAN    MOSUNNY   32  25  74 CALM      29.69R

$$

UTZ012>022-026-027-281700-

SOUTHERN/CENTRAL UTAH

CITY           SKY/WX    TMP DP  RH WIND       PRES   REMARKS
BLANDING       CLOUDY    30  30  99 E3        29.82R
CEDAR CITY     LGT SNOW  33  31  92 SE10      29.62S FOG     WCI  25
DELTA          CLOUDY    32  22  67 CALM      29.66R
HANKSVILLE     CLOUDY    32  32 100 SE6       29.77R VSB 1   WCI  26
MILFORD        CLOUDY    32  30  92 SE3       29.63R FOG
MOAB/CYNLANDS  CLOUDY    35  22  58 E16       29.73R WCI  25
PRICE          CLOUDY    33  24  69 NE3       29.72S
ST GEORGE      CLOUDY    43  37  81 W5        29.70R
KANAB          CLOUDY    36  36 100 CALM      29.73R

$$

REGIONAL REPORTS     COLORADO/ARIZONA

CITY           SKY/WX    TMP DP  RH WIND       PRES   REMARKS
CRAIG, CO      MOSUNNY   24  12  60 E14       29.79F WCI  12
GRAND JUNCTION CLOUDY    32  20  61 E15       29.79R WCI  22
RIFLE          PTSUNNY   24  16  71 CALM      29.82S
MONTROSE       CLOUDY    23  16  74 SE5       29.82R WCI  17
CORTEZ         HVY SNOW  31  29  92 CALM      29.78R VSB 1/4
PAGE, AZ       CLOUDY    35  32  88 CALM      29.72R FOG
GRAND CANYON   CLOUDY    36  31  82 SW14      29.73R WCI  27
KINGMAN        CLOUDY    49  36  61 SW18      29.74R
FLAGSTAFF      LGT SNOW  34  31  88 SW17      29.75R FOG     WCI  23

$$

REGIONAL REPORTS    NEVADA/IDAHO/WYOMING

CITY           SKY/WX    TMP DP  RH WIND       PRES   REMARKS
LAS VEGAS, NV  MOSUNNY   54  31  41 SW20      29.62R
ELY            FOG       29  28  96 N5        29.64R VSB 1/2 WCI  24
ELKO           FOG       27  26  96 CALM      29.66R VSB 1/4
POCATELLO, ID  MOSUNNY   25  18  74 NE18      29.77R WCI  11
BURLEY         MOSUNNY   30  16  56 E15       29.74R WCI  19
EVANSTON, WY   MOSUNNY   17  13  84 E17       29.74R WCI   1
ROCK SPRINGS   CLOUDY    16   9  74 E17       29.81R WCI   0

$$



USA.gov is the U.S. government's official web portal to all federal, state and local government web resources and services.